Location: Buch
(49.7331°N, 12.1098°E)
Time: 12:40:24
(UTC+00:00)

Daily predictions for brighter satellites

Satellite Brightness Start Highest point End
(mag) Time Altitude Azimuth Time Altitude Azimuth Time Altitude Azimuth
CZ-4C R/B 3.1 19:15:23 10° NW 19:22:23 74° NE 19:30:39 10° SE
Cosmos 1486 Rocket 4.4 19:18:36 10° SSW 19:23:56 74° WNW 19:29:18 10° NNE
Cosmos 1328 Rocket 4.2 19:24:52 10° SSE 19:28:58 38° E 19:33:02 10° NNE
Cosmos 1470 Rocket 4.3 19:26:31 10° N 19:30:45 39° ENE 19:34:57 10° SE
SPOT 3 Rocket 3.6 19:27:15 10° SSE 19:32:21 69° ENE 19:37:30 10° N
Landsat 7 4.0 19:28:14 10° SSE 19:32:55 60° ENE 19:37:37 10° N
Cosmos 1500 3.7 19:31:50 10° N 19:35:26 42° ENE 19:38:59 10° SSE
USA 307 3.0 19:32:09 10° WNW 19:36:26 76° NNE 19:40:43 10° ESE
Cosmos 773 Rocket 4.1 19:33:33 10° NNW 19:38:54 83° ENE 19:44:11 10° SSE
Meteor 1-26 Rocket 4.2 19:35:56 10° S 19:41:32 68° E 19:46:59 10° NNE
ARIANE 5 R/B 3.5 19:37:58 10° SE 19:41:52 34° ENE 19:45:47 10° N
Resurs 1-3 4.3 19:39:18 10° S 19:43:36 54° W 19:47:55 10° NNW
Cosmos 2082 Rocket 3.0 19:39:25 10° NNW 19:44:44 40° NE 19:49:52 11° ESE
Cosmos 1933 Rocket 4.4 19:40:52 10° N 19:44:53 35° ENE 19:48:34 12° SE
Cosmos 1666 Rocket 3.7 19:42:27 10° NNW 19:46:52 75° W 19:51:12 10° S
Spot 2 Rocket 4.0 19:44:40 10° SE 19:49:25 47° ENE 19:54:15 10° N
Cosmos 1709 Rocket 4.0 19:43:19 10° N 19:49:28 87° W 19:55:35 10° S
USA 308 2.9 19:45:48 10° WNW 19:50:07 86° NNE 19:54:09 12° ESE
BREEZE-M R/B 1.6 19:48:01 10° WSW 19:50:35 62° SSE 19:53:04 10° E
COSMOS 2406 3.2 19:48:39 10° NNW 19:54:21 79° ENE 19:59:34 12° SSE
ERS-1 Rocket 3.8 19:50:09 12° SE 19:54:24 36° ENE 19:58:59 10° N
Meteor 1-14 Rocket 4.3 19:48:32 10° N 19:54:27 79° ENE 20:00:11 10° SSE
Cosmos 2074 Rocket 4.5 19:51:55 10° N 19:58:00 48° ENE 20:03:24 13° SE
MetOp-B 4.2 19:54:33 10° SSE 19:59:55 90° ENE 20:05:19 10° NNW
SJ 16-02 2.1 19:56:13 10° SSE 20:00:08 32° ESE 20:04:06 10° NE
Cosmos 1242 Rocket 3.6 19:56:42 10° SSW 20:00:08 47° WNW 20:03:35 10° N
Cosmos 1437 2.3 19:57:33 10° S 20:00:22 72° E 20:03:13 10° NNE
USA 245 2.1 20:02:46 21° SE 20:04:02 54° ENE 20:06:18 10° N
BREEZE-M DEB (TANK) 4.0 19:53:37 10° WSW 20:07:07 88° NNW 20:10:34 10° ENE
Cosmos 1271 Rocket 3.7 20:05:27 15° SSE 20:08:05 31° E 20:11:39 10° NNE
Meteor 2-6 Rocket 4.4 20:02:51 10° S 20:08:05 52° E 20:13:28 10° NNE
CRYOSAT 2 4.4 20:03:39 10° S 20:08:33 89° W 20:13:28 10° N
SWARM A 4.2 20:05:37 10° N 20:08:57 66° E 20:11:32 15° SSE
CZ-2C R/B 3.6 20:05:51 10° NNE 20:10:21 73° ESE 20:14:54 10° S
Cosmos 2278 Rocket 2.3 20:05:46 10° S 20:11:16 55° ESE 20:16:48 10° NE
deb Kosmos-1763 3.9 20:08:15 10° NNW 20:11:48 79° ENE 20:14:16 19° SSE
Cosmos 1844 Rocket 4.5 20:08:11 10° WSW 20:13:17 35° NW 20:18:26 10° NNE
Cosmos 1943 Rocket 4.0 20:12:58 11° ESE 20:14:08 12° E 20:16:13 10° ENE
CREW DRAGON DEMO-1 DEB 2.9 20:11:40 10° WNW 20:14:14 47° SSW 20:15:24 25° SE
Cosmos 1777 Rocket 3.9 20:10:14 10° SSW 20:15:25 78° ESE 20:20:38 10° NNE
Cosmos 1151 Rocket 3.6 20:11:13 10° SSW 20:15:32 61° WNW 20:19:55 10° N
Cosmos 2084 3.5 20:11:42 10° SW 20:15:52 82° NW 20:20:09 10° NE
Cosmos 2315 Rocket 4.3 20:11:55 10° SSW 20:18:17 76° W 20:24:43 10° N
Cosmos 1782 3.8 20:18:10 10° SSW 20:22:03 48° WNW 20:25:56 10° N
ATLAS 5 CENTAUR R/B 4.0 20:22:35 10° WNW 20:27:13 25° WSW 20:32:26 10° S
Gbstr 26 Del rocket 4.4 20:20:53 10° W 20:28:45 79° N 20:35:23 10° E
USA 305 3.1 20:25:43 10° WNW 20:29:54 56° SW 20:32:22 23° SE
Resurs 01 Rocket 3.2 20:26:52 10° SSW 20:30:50 32° W 20:34:50 10° NNW
Cosmos 923 Rocket 4.2 20:26:17 10° NNW 20:31:31 60° ENE 20:35:01 21° SE
Cosmos 2228 Rocket 3.6 20:29:53 21° SSE 20:32:28 42° E 20:36:43 10° NNE
NOSS 3-4 (A) 3.9 20:28:04 10° NW 20:34:59 85° SW 20:40:44 20° SE
NOSS 3-4 (C) 3.9 20:28:10 10° NW 20:35:06 86° SW 20:40:50 20° SE
Cosmos 1812 2.9 20:32:34 10° SSW 20:36:24 71° W 20:40:17 10° N
Meteor 1-11 Rocket 3.9 20:32:50 10° N 20:38:51 72° ENE 20:42:58 21° SSE
Terra 2.0 20:37:19 22° SE 20:40:16 60° ENE 20:44:58 10° N
Cosmos 1666 2.8 20:37:12 10° NNW 20:40:55 67° W 20:43:16 21° S
NOSS 3-3 (A) 4.4 20:39:31 10° SW 20:45:22 66° NW 20:52:11 10° NE
NOSS 3-3 (C) 4.4 20:39:37 10° SW 20:45:29 66° NW 20:52:17 10° NE
Cosmos 44 3.9 20:40:44 10° NW 20:46:08 59° NE 20:49:39 21° ESE
Cosmos 1833 Rocket 3.5 20:41:21 10° NW 20:46:44 46° WSW 20:50:56 16° S
Cosmos 1340 Rocket 3.6 20:43:43 10° N 20:47:35 39° ENE 20:49:18 26° ESE
ATLAS 2AS CENTAUR R/B 2.9 20:41:03 10° NW 20:48:34 77° NE 20:53:31 21° SE
USA 306 3.5 20:45:11 10° WNW 20:49:14 43° SW 20:51:02 27° SSE
Cosmos 1515 Rocket 4.1 20:46:19 10° SSW 20:50:40 58° WNW 20:55:01 10° N
SPOT 5 3.1 20:47:38 21° S 20:51:07 83° WSW 20:56:29 10° NNW
ERBS 3.6 20:49:05 10° NW 20:52:10 35° NNE 20:54:27 16° E
Iridium 4 Rocket 3.9 20:47:25 14° S 20:52:29 84° W 20:58:27 10° N
USA 215 4.2 20:46:57 10° ENE 20:53:10 48° N 20:59:24 10° WNW
Cosmos 1869 Rocket 3.5 20:49:48 10° N 20:54:09 76° E 20:56:20 29° SSE
Cosmos 1743 3.4 20:55:26 10° N 20:59:06 40° ENE 21:00:22 30° ESE
Cosmos 158 Rocket 4.2 20:56:29 10° NNW 21:01:18 59° WSW 21:04:06 24° S
Cosmos 1536 2.7 21:00:24 10° N 21:04:29 86° E 21:06:10 34° SSE
Meteor 1-10 Rocket 4.4 20:59:34 11° SSW 21:04:54 75° WNW 21:10:38 10° N
Cosmos 1544 3.0 21:06:23 10° N 21:10:00 72° E 21:11:01 44° SSE
Cosmos 2112 Rocket 4.0 21:04:47 10° NNW 21:10:11 80° ENE 21:12:54 30° SSE
CZ-4C R/B 4.0 21:04:13 10° NW 21:10:50 37° WSW 21:16:26 17° S
Cosmos 2297 4.1 21:08:50 27° SSE 21:11:25 44° ESE 21:16:46 10° NE
Cosmos 1707 Rocket 3.9 21:12:32 35° SE 21:13:55 48° E 21:18:12 10° NNE
EP 1 4.4 21:13:48 21° SW 21:15:37 75° NW 21:18:15 10° NE
USA 307 3.9 21:12:23 10° WNW 21:16:10 31° SW 21:17:05 28° SSW
ARIANE 5 R/B 4.1 21:15:27 15° SSW 21:18:21 29° W 21:22:10 10° NW
SL-8 Rocket 4.4 21:12:22 10° N 21:18:34 52° ENE 21:21:48 27° SE
Cosmos 1975 4.2 21:16:26 10° NNE 21:19:49 26° ENE 21:20:51 23° E
RESURS DK-1 4.4 21:19:49 10° N 21:23:04 21° NE 21:25:36 13° E
H-2A R/B 3.4 21:18:52 10° NNE 21:23:05 84° WNW 21:25:07 30° SSW
Cosmos 1238 Rocket 4.0 21:19:51 10° N 21:26:01 60° ENE 21:28:28 32° SE
ALOS 2 4.3 21:24:31 18° E 21:26:20 23° ENE 21:29:46 10° N
Cosmos 2082 Rocket 3.0 21:23:36 10° NW 21:28:50 41° WSW 21:31:43 24° SSW
USA 308 4.2 21:26:11 10° W 21:29:44 26° SW 21:30:15 25° SSW
Cosmos 2154 Rocket 4.4 21:26:44 10° NNW 21:32:56 59° W 21:36:54 23° SSW
Cosmos 1937 Rocket 3.6 21:31:11 36° SSE 21:33:01 54° ESE 21:38:03 10° NNE
ERS-1 Rocket 4.1 21:30:09 19° SSW 21:33:12 36° W 21:37:50 10° NNW
Cosmos 1461 3.9 21:35:29 32° ESE 21:35:29 32° ESE 21:39:32 10° NE
Cosmos 1680 Rocket 3.9 21:31:44 10° NNW 21:36:58 57° WSW 21:39:16 32° S
SJ 16-02 3.0 21:34:40 10° SW 21:38:41 33° WNW 21:42:44 10° N
BREEZE-M DEB (TANK) 3.7 21:38:10 10° W 21:38:36 15° W 21:38:36 15° W
Cosmos 1733 Rocket 2.9 21:38:37 10° N 21:42:58 82° E 21:44:08 48° SSE
SL-24 R/B - RUBIN 2 4.1 21:38:00 10° NW 21:43:26 60° WSW 21:45:04 39° S
Cosmos 962 Rocket 4.5 21:39:00 10° NNW 21:45:08 77° W 21:48:11 32° S
Cosmos 1515 3.5 21:47:27 62° S 21:48:01 80° E 21:51:49 10° NNE
Cosmos 858 Rocket 4.4 21:46:32 37° S 21:48:35 70° ESE 21:53:49 10° NNE
Cosmos 2278 Rocket 3.9 21:50:37 10° WSW 21:55:40 32° NW 22:00:45 10° NNE
Cosmos 1943 Rocket 2.1 21:54:26 35° S 21:56:52 71° ESE 22:02:27 10° NNE
Cosmos 1908 Rocket 4.1 21:54:25 10° N 21:58:47 48° ENE 21:59:50 39° ESE
Cosmos 1818 3.6 21:55:42 10° NW 22:01:09 66° SW 22:02:54 42° S
Cosmos 2369 Rocket 2.6 22:01:38 38° SE 22:02:54 45° ESE 22:08:16 10° NE
Cosmos 2084 Rocket 3.7 22:02:09 10° NW 22:06:18 51° SW 22:06:47 48° SSW
BREEZE-M R/B 4.1 22:09:49 10° W 22:10:38 19° W 22:10:38 19° W
Meteor 2-9 Rocket 4.3 22:06:43 10° NNW 22:12:32 75° W 22:14:37 40° S
Cosmos 1898 Rocket 4.1 22:10:32 20° SW 22:14:07 56° WNW 22:19:24 10° NNE
Meteor 1-19 Rocket 4.0 22:12:14 40° S 22:14:14 90° WNW 22:19:41 10° NNE
Cosmos 2181 Rocket 3.9 22:11:57 35° S 22:14:44 86° W 22:20:55 10° N
Cosmos 1656 Rocket 4.3 22:14:19 34° SE 22:15:05 35° ESE 22:20:04 10° NE
SL-27 R/B 3.7 22:13:00 10° N 22:15:59 29° ENE 22:16:15 29° ENE
Cosmos 967 Rocket 4.5 22:11:12 18° SW 22:16:07 83° NW 22:22:27 10° NE
Gbstr 26 Del rocket 4.0 22:08:52 10° WNW 22:16:08 63° SSW 22:18:36 37° SE
Terra 3.8 22:16:11 15° SW 22:18:24 20° W 22:21:51 10° NW
Cosmos 2366 rocket 4.0 22:12:44 10° NNW 22:18:55 76° W 22:21:27 38° S
Cosmos 1821 Rocket 4.4 22:12:49 10° N 22:19:07 55° ENE 22:21:51 33° SE
Okean 1 4.0 22:23:54 39° WSW 22:24:51 48° WNW 22:28:44 10° N
SeaSat 1 4.1 22:22:03 10° ENE 22:25:21 18° ESE 22:25:21 18° ESE
Cosmos 372 Rocket 3.8 22:25:48 46° SSW 22:27:21 87° ESE 22:32:29 10° NNE
ERBS 3.6 22:25:10 10° WNW 22:27:12 31° W 22:27:12 31° W
Cosmos 1862 Rocket 4.0 22:27:33 41° SW 22:28:43 55° WNW 22:32:59 10° N
ISS -1.2 22:32:07 14° ENE 22:32:07 14° ENE 22:32:39 10° ENE
Cosmos 1703 Rocket 3.7 22:28:53 53° SE 22:29:24 57° E 22:33:44 10° NNE
Cosmos 44 Rocket 4.3 22:24:26 10° NNW 22:29:30 45° NE 22:32:44 20° ESE
Cosmos 1782 Rocket 3.9 22:26:22 10° N 22:30:46 56° ENE 22:31:35 48° ESE
Cosmos 2263 4.4 22:30:07 43° SSE 22:31:33 54° ESE 22:37:11 10° NE
Cosmos 2150 Rocket 4.5 22:30:50 40° SE 22:31:46 44° ESE 22:36:46 10° NE
USA 215 3.4 22:29:15 10° ESE 22:35:46 72° NNE 22:42:18 10° WNW
Meteor 2-4 Rocket 3.7 22:35:54 44° S 22:37:49 85° E 22:43:27 10° NNE
Cosmos 494 Rocket 4.1 22:33:16 10° NNW 22:38:28 67° ENE 22:40:08 42° SE
ATLAS 2AS CENTAUR R/B 3.8 22:32:46 10° NW 22:38:51 30° WSW 22:40:56 25° SW
Cosmos 468 4.4 22:36:30 10° NNW 22:41:49 89° WSW 22:43:16 50° SSE
Cosmos 2218 Rocket 4.5 22:36:38 10° NNW 22:42:41 51° W 22:45:17 32° SSW
Spot 4 4.4 22:42:00 39° SW 22:43:07 46° W 22:47:49 10° NNW
Okean 1-7 2.8 22:43:30 68° SSE 22:43:56 77° E 22:48:14 10° NNE
Cosmos 1607 4.1 22:43:51 41° S 22:45:58 61° ESE 22:52:22 10° NE
Meteor 1-13 Rocket 4.5 22:46:04 42° SE 22:47:32 54° E 22:52:54 10° NNE
Cosmos 1356 Rocket 3.7 22:44:41 10° N 22:48:58 61° ENE 22:49:36 54° ESE
Cosmos 1125 Rocket 3.8 22:50:20 45° SE 22:51:15 51° ESE 22:56:18 10° NNE
Cosmos 2297 Rocket 4.4 22:47:13 10° N 22:51:30 21° NE 22:55:47 10° E
Cosmos 1833 4.2 22:49:09 10° NNW 22:54:56 80° WSW 22:56:44 46° SSE
Cosmos 1867 3.5 22:54:36 49° S 22:55:58 70° SE 23:01:26 10° NE
Cosmos 1975 4.0 22:52:46 10° NNW 22:56:16 30° W 22:56:35 30° W
RESURS DK-1 2.4 22:57:20 10° NW 23:01:27 60° WSW 23:01:28 60° WSW
COSMOS 2455 4.3 22:56:25 10° NNW 23:01:55 35° NE 23:07:24 10° ESE
Lacrosse 5 3.5 23:03:14 20° ESE 23:03:14 20° ESE 23:06:02 10° ENE
ALOS 2 3.0 23:01:54 45° WSW 23:02:23 47° W 23:06:40 10° NNW
Nadezhda 3 Rocket 3.9 23:01:03 43° S 23:03:19 83° E 23:09:33 10° N
SAR-Lupe-2 3.8 23:04:04 10° N 23:07:38 62° WNW 23:07:39 62° WNW
NOSS 2-1 (C) 4.2 23:04:00 10° NW 23:08:38 71° NE 23:12:36 23° SE
Meteor 1-12 Rocket 4.2 23:04:55 10° NNW 23:10:48 78° W 23:12:37 46° S
Cosmos 1378 3.0 23:13:26 85° NNW 23:13:26 85° NNW 23:17:05 10° N
Cosmos 1461 4.0 23:11:46 23° WSW 23:14:23 47° NW 23:18:51 10° NNE
NOSS 2-1 (D) 4.1 23:10:49 10° NW 23:15:28 78° NE 23:19:11 25° SE
COBE Rocket 4.4 23:16:37 42° SW 23:17:42 49° W 23:22:43 10° NNW
Cosmos 1726 4.4 23:16:06 10° NNE 23:18:34 17° ENE 23:19:59 14° E
COSMOS 2487 3.1 23:18:48 10° NNW 23:22:06 45° ENE 23:22:11 45° ENE
Cosmos 1605 Rocket 4.3 23:18:41 10° N 23:24:53 61° ENE 23:27:50 32° SE
Sich 1 Rocket 3.5 23:20:43 10° N 23:25:18 84° W 23:26:01 63° S
PSLV R/B 3.6 23:22:34 10° NNE 23:26:55 62° ESE 23:27:27 56° SE
Cosmos 2344 4.3 23:20:15 10° NW 23:29:25 76° SW 23:39:42 18° SSE
Cosmos 1300 Rocket 3.4 23:32:20 10° NNW 23:36:46 73° W 23:37:19 63° SSW
Cosmos 1269 Rocket 4.0 23:32:53 10° NNW 23:38:13 86° ENE 23:40:01 43° SSE
Thor Agena Rocket 3.8 23:35:04 10° N 23:40:16 66° WNW 23:42:03 41° SW
ATLAS CENTAUR R/B 1.1 23:40:13 67° W 23:40:27 70° NW 23:44:17 10° NE
Cosmos 1943 Rocket 4.0 23:36:26 10° W 23:41:09 27° NW 23:45:52 10° NNE
Okean 2 Rocket 2.9 23:39:10 10° NNW 23:43:35 79° W 23:44:14 63° SSW
Cosmos 2151 Rocket 3.5 23:40:04 10° N 23:44:38 85° E 23:45:33 57° SSE
Cosmos 2369 Rocket 3.3 23:43:23 18° WSW 23:47:02 38° NW 23:52:19 10° NNE
Cosmos 1733 3.2 23:43:55 10° NNW 23:47:41 65° W 23:47:41 65° W
Meteor 1-15 Rocket 4.4 23:43:14 10° NNW 23:48:51 63° W 23:50:39 42° SSW
EO 1 Delta rocket 4.3 23:52:00 45° SSW 23:53:35 67° W 23:59:46 10° NNW
EO 1 Del DPAF 3.0 23:50:06 10° N 23:53:50 77° WNW 23:54:03 73° WSW
